Flag for Netherlands Weather past 2 weeks in Utrecht, Netherlands

Now
43 °F

Clear.


Feels Like: 36 °F
Forecast: 41 / 49 °F
Wind: 12 mph from West

Location: Amsterdam Schiphol Airport

Current Time: Mar 5, 2015 at 7:57:04 PM

Latest Report: Mar 5, 2015 at 6:55 PM


Visibility: 10 mi

Pressure: 30.60 "Hg

Humidity: 81%

Dew point: 37 °F

Location of UtrechtLocation

Historic Weather in Utrecht — Graph

°F

Utrecht temperature yesterday

Maximum temperature yesterday: 45 °F (at 2:25 PM)
Minimum temperature yesterday: 39 °F (at 2:25 AM)
Average temperature yesterday: 42 °F

Past Weeks' High & Low Weather Summary

 TemperatureHumidityPressure
High50 °F (Mar 1, 10:55 AM)100% (Feb 18, 10:25 PM)30.63 "Hg (Feb 18, 10:25 PM)
Low30 °F (Feb 19, 4:55 AM)54% (Feb 23, 3:25 PM)29.24 "Hg (Feb 23, 3:25 AM)
Average41 °F84%29.84 "Hg
* Reported Feb 18 6:25 PM — Mar 5 6:25 PM, Utrecht, Weather by CustomWeather, © 2015

Note: Actual official high and low records may vary slightly from our data, if they occured in-between our weather recording intervals... More about our weather records

Advertising

Utrecht weather history for previous 24 hours

 ConditionsComfort  
Time TempWeatherWind HumidityBarometerVisibility
6:25 PM
Thu, Mar 5
43 °FSunny.10 mph81%30.60 "Hg10 mi
5:55 PM45 °FSunny.10 mph76%30.60 "Hg10 mi
5:25 PM45 °FSunny.10 mph76%30.60 "Hg10 mi
4:55 PM45 °FSunny.12 mph76%30.63 "Hg10 mi
4:25 PM46 °FSunny.13 mph71%30.63 "Hg10 mi
3:55 PM46 °FPassing clouds.15 mph66%30.63 "HgN/A
3:25 PM48 °FPassing clouds.15 mph62%30.60 "HgN/A
2:55 PM48 °FPassing clouds.15 mph62%30.60 "HgN/A
2:25 PM48 °FPassing clouds.16 mph66%30.63 "HgN/A
1:55 PM48 °FPassing clouds.14 mph66%30.63 "HgN/A
1:25 PM48 °FPassing clouds.14 mph71%30.63 "HgN/A
12:55 PM48 °FPassing clouds.14 mph71%30.63 "HgN/A
12:25 PM48 °FPassing clouds.13 mph71%30.63 "HgN/A
11:55 AM48 °FPassing clouds.10 mph76%30.63 "HgN/A
11:25 AM46 °FPassing clouds.10 mph82%30.63 "HgN/A
10:55 AM45 °FPassing clouds.9 mph87%30.63 "HgN/A
10:25 AM45 °FScattered clouds.10 mph87%30.63 "HgN/A
9:55 AM43 °FPartly sunny.12 mph93%30.63 "HgN/A
9:25 AM43 °FPassing clouds.8 mph93%30.63 "HgN/A
8:55 AM41 °FSunny.9 mph93%30.63 "Hg10 mi
8:25 AM39 °FSunny.7 mph93%30.63 "Hg10 mi
7:55 AM36 °FFog.3 mph100%30.63 "HgN/A
7:25 AM34 °FFog.No wind100%30.63 "HgN/A
6:55 AM32 °FFog.2 mph100%30.63 "HgN/A
6:25 AM34 °FFog.5 mph100%30.63 "HgN/A
5:55 AM32 °FClear.5 mph100%30.60 "Hg10 mi
5:25 AM34 °FClear.5 mph100%30.60 "Hg10 mi
4:55 AM34 °FClear.2 mph100%30.60 "Hg10 mi
4:25 AM34 °FClear.3 mph100%30.60 "Hg10 mi
3:55 AM34 °FClear.3 mph100%30.60 "Hg10 mi
2:55 AM36 °FClear.6 mph93%30.57 "Hg10 mi
2:25 AM36 °FClear.6 mph93%30.57 "Hg10 mi
1:55 AM37 °FPassing clouds.7 mph93%30.57 "HgN/A
1:25 AM37 °FPassing clouds.7 mph93%30.57 "HgN/A
12:55 AM39 °FPassing clouds.9 mph93%30.54 "HgN/A
12:25 AM39 °FPassing clouds.8 mph93%30.54 "HgN/A
11:55 PM
Wed, Mar 4
41 °FPassing clouds.9 mph87%30.51 "HgN/A
11:25 PM43 °FSprinkles. Partly cloudy.10 mph87%30.51 "Hg4 mi
10:25 PM41 °FPassing clouds.14 mph93%30.48 "HgN/A
9:55 PM41 °FPassing clouds.14 mph93%30.48 "HgN/A
9:25 PM41 °FPassing clouds.13 mph93%30.45 "HgN/A
8:55 PM43 °FSprinkles. Partly cloudy.15 mph87%30.45 "HgN/A
8:25 PM43 °FPartly cloudy.17 mph87%30.42 "HgN/A
7:55 PM43 °FSprinkles. Partly cloudy.16 mph81%30.39 "HgN/A
7:25 PM43 °FSprinkles. Partly cloudy.20 mph81%30.39 "HgN/A
Weather by CustomWeather, © 2015

See weather overviewHow to use our weather pages